EN

Hourly Weather Al Jubayl

Today, 27 January, Wednesday

Time Temperature Precipitation Wind Pressure Humidity
00:00 +17°C° 0 mm 2 mps 764 mmHg 57%
01:00 +17°C° 0 mm 3 mps 764 mmHg 56%
02:00 +16°C° 0 mm 3 mps 764 mmHg 54%
03:00 +16°C° 0 mm 3 mps 764 mmHg 52%
04:00 +16°C° 0 mm 3 mps 764 mmHg 51%
05:00 +16°C° 0 mm 3 mps 764 mmHg 49%
06:00 +16°C° 0 mm 3 mps 764 mmHg 48%
07:00 +17°C° 0 mm 3 mps 764 mmHg 43%
08:00 +18°C° 0 mm 3 mps 765 mmHg 38%
09:00 +20°C° 0 mm 3 mps 765 mmHg 34%
10:00 +21°C° 0 mm 3 mps 765 mmHg 29%
11:00 +22°C° 0 mm 3 mps 764 mmHg 25%
12:00 +25°C° 0 mm 3 mps 764 mmHg 21%
13:00 +25°C° 0 mm 3 mps 764 mmHg 22%
14:00 +25°C° 0 mm 3 mps 763 mmHg 23%
15:00 +25°C° 0 mm 3 mps 763 mmHg 24%
16:00 +22°C° 0 mm 3 mps 763 mmHg 33%
17:00 +21°C° 0 mm 3 mps 763 mmHg 42%
18:00 +19°C° 0 mm 3 mps 763 mmHg 51%
19:00 +19°C° 0 mm 3 mps 763 mmHg 53%
20:00 +19°C° 0 mm 2 mps 764 mmHg 55%
21:00 +18°C° 0 mm 2 mps 764 mmHg 57%
22:00 +18°C° 0 mm 2 mps 764 mmHg 57%
23:00 +18°C° 0 mm 2 mps 763 mmHg 58%

Tomorrow, 28 January, Thursday

Time Temperature Precipitation Wind Pressure Humidity
00:00 +17°C° 0 mm 2 mps 763 mmHg 58%
01:00 +17°C° 0 mm 2 mps 763 mmHg 58%
02:00 +16°C° 0 mm 2 mps 762 mmHg 59%
03:00 +16°C° 0 mm 1 mps 762 mmHg 59%
04:00 +16°C° 0 mm 2 mps 762 mmHg 58%
05:00 +16°C° 0 mm 2 mps 763 mmHg 56%
06:00 +16°C° 0 mm 2 mps 763 mmHg 55%
07:00 +17°C° 0 mm 2 mps 763 mmHg 50%
08:00 +19°C° 0 mm 3 mps 763 mmHg 45%
09:00 +20°C° 0 mm 3 mps 763 mmHg 40%
10:00 +22°C° 0 mm 3 mps 763 mmHg 34%
11:00 +25°C° 0 mm 3 mps 763 mmHg 29%
12:00 +26°C° 0 mm 3 mps 763 mmHg 23%
13:00 +27°C° 0 mm 3 mps 762 mmHg 22%
14:00 +28°C° 0 mm 4 mps 762 mmHg 20%
15:00 +28°C° 0 mm 5 mps 761 mmHg 19%
16:00 +27°C° 0 mm 5 mps 761 mmHg 24%
17:00 +25°C° 0 mm 5 mps 761 mmHg 29%
18:00 +22°C° 0 mm 6 mps 761 mmHg 34%
19:00 +22°C° 0 mm 6 mps 761 mmHg 37%
20:00 +21°C° 0 mm 6 mps 762 mmHg 40%
21:00 +20°C° 0 mm 6 mps 762 mmHg 43%
22:00 +20°C° 0 mm 6 mps 762 mmHg 45%
23:00 +20°C° 0 mm 6 mps 761 mmHg 47%

Day after tomorrow, 29 January, Friday

Time Temperature Precipitation Wind Pressure Humidity
00:00 +19°C° 0 mm 6 mps 761 mmHg 50%
01:00 +19°C° 0 mm 6 mps 761 mmHg 51%
02:00 +17°C° 0 mm 5 mps 761 mmHg 53%
03:00 +17°C° 0 mm 5 mps 761 mmHg 54%
04:00 +17°C° 0 mm 5 mps 761 mmHg 53%
05:00 +17°C° 0 mm 5 mps 761 mmHg 52%
06:00 +16°C° 0 mm 5 mps 761 mmHg 51%
07:00 +19°C° 0 mm 6 mps 762 mmHg 45%
08:00 +20°C° 0 mm 6 mps 762 mmHg 38%
09:00 +22°C° 0 mm 6 mps 762 mmHg 32%
10:00 +24°C° 0 mm 6 mps 762 mmHg 28%
11:00 +26°C° 0 mm 6 mps 761 mmHg 24%
12:00 +28°C° 0 mm 6 mps 761 mmHg 20%
13:00 +29°C° 0 mm 6 mps 760 mmHg 19%
14:00 +30°C° 0 mm 7 mps 759 mmHg 18%
15:00 +30°C° 0 mm 7 mps 759 mmHg 17%
16:00 +28°C° 0 mm 7 mps 759 mmHg 23%
17:00 +27°C° 0 mm 7 mps 759 mmHg 30%
18:00 +24°C° 0 mm 7 mps 759 mmHg 36%
19:00 +23°C° 0 mm 7 mps 759 mmHg 40%
20:00 +22°C° 0 mm 8 mps 759 mmHg 43%
21:00 +22°C° 0 mm 8 mps 759 mmHg 47%
22:00 +22°C° 0 mm 8 mps 759 mmHg 47%
23:00 +21°C° 0 mm 8 mps 759 mmHg 48%

30 January, Saturday

Time Temperature Precipitation Wind Pressure Humidity
00:00 +21°C° 0 mm 8 mps 758 mmHg 48%
01:00 +21°C° 0 mm 8 mps 758 mmHg 46%
02:00 +21°C° 0 mm 8 mps 758 mmHg 44%
03:00 +20°C° 0 mm 8 mps 758 mmHg 42%
04:00 +20°C° 0 mm 7 mps 758 mmHg 40%
05:00 +19°C° 0 mm 6 mps 758 mmHg 39%
06:00 +19°C° 0 mm 4 mps 758 mmHg 37%
07:00 +20°C° 0 mm 5 mps 759 mmHg 31%
08:00 +22°C° 0 mm 6 mps 759 mmHg 24%
09:00 +24°C° 0 mm 6 mps 759 mmHg 18%
10:00 +24°C° 0 mm 7 mps 759 mmHg 21%
11:00 +26°C° 0 mm 8 mps 759 mmHg 25%
12:00 +27°C° 0 mm 9 mps 759 mmHg 29%
13:00 +26°C° 0 mm 9 mps 759 mmHg 31%
14:00 +24°C° 0 mm 10 mps 759 mmHg 33%
15:00 +22°C° 0 mm 11 mps 759 mmHg 35%
16:00 +22°C° 0 mm 10 mps 760 mmHg 38%
17:00 +21°C° 0 mm 9 mps 760 mmHg 40%
18:00 +20°C° 0 mm 8 mps 761 mmHg 43%
19:00 +20°C° 0 mm 8 mps 762 mmHg 44%
20:00 +18°C° 0 mm 8 mps 762 mmHg 46%
21:00 +18°C° 0 mm 8 mps 763 mmHg 47%
22:00 +18°C° 0 mm 8 mps 763 mmHg 47%
23:00 +17°C° 0 mm 9 mps 763 mmHg 47%

31 January, Sunday

Time Temperature Precipitation Wind Pressure Humidity
00:00 +17°C° 0 mm 9 mps 763 mmHg 46%
01:00 +17°C° 0 mm 9 mps 763 mmHg 47%
02:00 +16°C° 0 mm 9 mps 763 mmHg 48%
03:00 +16°C° 0 mm 8 mps 763 mmHg 49%
04:00 +16°C° 0 mm 8 mps 763 mmHg 51%
05:00 +15°C° 0 mm 8 mps 764 mmHg 52%
06:00 +15°C° 0 mm 7 mps 764 mmHg 54%
07:00 +16°C° 0 mm 7 mps 764 mmHg 51%
08:00 +17°C° 0 mm 7 mps 765 mmHg 48%
09:00 +17°C° 0 mm 7 mps 765 mmHg 45%
10:00 +18°C° 0 mm 8 mps 765 mmHg 42%
11:00 +20°C° 0 mm 8 mps 764 mmHg 39%
12:00 +21°C° 0 mm 8 mps 764 mmHg 36%
13:00 +20°C° 0 mm 8 mps 764 mmHg 37%
14:00 +20°C° 0 mm 8 mps 764 mmHg 38%
15:00 +20°C° 0 mm 8 mps 764 mmHg 38%
16:00 +18°C° 0 mm 8 mps 764 mmHg 42%
17:00 +17°C° 0 mm 7 mps 764 mmHg 45%
18:00 +16°C° 0 mm 7 mps 765 mmHg 49%
19:00 +16°C° 0 mm 7 mps 765 mmHg 50%
20:00 +16°C° 0 mm 6 mps 765 mmHg 51%
21:00 +16°C° 0 mm 6 mps 766 mmHg 53%
22:00 +15°C° 0 mm 6 mps 765 mmHg 53%
23:00 +15°C° 0 mm 6 mps 765 mmHg 54%

1 February, Monday

Time Temperature Precipitation Wind Pressure Humidity
00:00 +15°C° 0 mm 6 mps 765 mmHg 54%
01:00 +14°C° 0 mm 6 mps 765 mmHg 53%
02:00 +14°C° 0 mm 6 mps 765 mmHg 52%
03:00 +13°C° 0 mm 6 mps 765 mmHg 51%
04:00 +12°C° 0 mm 7 mps 765 mmHg 52%
05:00 +12°C° 0 mm 7 mps 765 mmHg 52%
06:00 +12°C° 0 mm 7 mps 765 mmHg 53%
07:00 +15°C° 0 mm 7 mps 766 mmHg 51%
08:00 +16°C° 0 mm 7 mps 766 mmHg 49%
09:00 +18°C° 0 mm 7 mps 767 mmHg 47%
10:00 +20°C° 0 mm 7 mps 766 mmHg 43%
11:00 +21°C° 0 mm 8 mps 766 mmHg 39%
12:00 +22°C° 0 mm 8 mps 765 mmHg 36%
13:00 +22°C° 0 mm 8 mps 765 mmHg 36%
14:00 +21°C° 0 mm 7 mps 765 mmHg 36%
15:00 +21°C° 0 mm 7 mps 764 mmHg 37%
16:00 +20°C° 0 mm 7 mps 764 mmHg 40%
17:00 +19°C° 0 mm 6 mps 764 mmHg 44%
18:00 +17°C° 0 mm 6 mps 765 mmHg 48%
19:00 +17°C° 0 mm 5 mps 765 mmHg 48%
20:00 +16°C° 0 mm 5 mps 765 mmHg 49%
21:00 +16°C° 0 mm 5 mps 766 mmHg 50%
22:00 +16°C° 0 mm 5 mps 765 mmHg 48%
23:00 +15°C° 0 mm 4 mps 765 mmHg 47%
Show more